Location: Bu�n Treun
(12.1333°N, 108.3167°E)
Time: 12:52:04
(UTC+00:00)

Palapa 6 Rocket - Pass Details

Date: 13 July 2020
Orbit: 485 x 1217 km, 22.7° (Epoch: 06 August)

Event Time Altitude Azimuth Distance (km) Brightness Sun altitude
Exits shadow 20:57:57 47° 305° (NW) 710 3.1 -21.0°
Maximum altitude 20:58:38 55° 343° (NNW) 661 3.2 -20.9°
Drops below altitude 10° 21:03:03 10° 61° (ENE) 1,973 6.9 -19.9°
Sets 21:05:40 0° 66° (ENE) 2,999 8.2 -19.3°
